This demonstration page uses our WeatherBlox Daily Observations layout. Learn more.

Left ArrowRight Arrow

Hourly Observations for April 12, 2020

Temp ( °F °C ) Dew Point ( °F °C ) Humidity (%) Winds ( mph kmh ) Pressure ( in mb ) Visibility ( mi km ) Precip ( " mm )
12:52 am 00:52 Mostly Cloudy with Haze 54 12.2 44 6.7 69 69 NNE 9 15 29.56 1001 6 10 0.00 0.00
1:52 am 01:52 Cloudy with Haze 49 9.4 39 3.9 69 69 N 12 19 29.57 1001 6 10 0.00 0.00
2:38 am 02:38 Cloudy with Haze 50 10 38 3.3 63 63 N 17 28 29.60 1002 6 10 0.00 0.00
2:52 am 02:52 Cloudy with Haze 49 9.4 38 3.3 66 66 N 15 24 29.57 1002 6 10 0.00 0.00
3:52 am 03:52 Cloudy with Haze 49 9.4 34 1.1 56 56 NNE 20 31 29.57 1001 6 10 0.00 0.00
4:52 am 04:52 Cloudy 48 8.9 33 0.6 56 56 N 16 26 29.59 1002 10 16 0.00 0.00
5:52 am 05:52 Cloudy 44 6.7 30 -1.1 58 58 N 26 43 29.57 1002 10 16 0.00 0.00
6:04 am 06:04 Cloudy with Thunderstorms 44 6.7 30 -1.1 58 58 N 23 37 29.62 1003 10 16 0.00 0.00
6:52 am 06:52 Windy with Storms Likely 43 6.1 33 0.6 68 68 N 22 35 29.58 1002 10 16 0.00 0.00
7:25 am 07:25 Cloudy 40 4.4 34 1.1 79 79 N 16 26 29.66 1005 10 16 0.00 0.00
7:52 am 07:52 Cloudy with Light Rain 40 4.4 34 1.1 79 79 N 16 26 29.64 1004 10 16 0.00 0.00
8:52 am 08:52 Cloudy with Light Rain 37 2.8 34 1.1 89 89 N 18 30 29.68 1005 4 6 0.01 0.25
9:38 am 09:38 Cloudy with Light Rain 36 2.2 34 1.1 93 93 N 24 39 29.73 1007 4 6 0.01 0.25
9:52 am 09:52 Cloudy with Light Rain 35 1.7 33 0.6 93 93 NNW 28 44 29.71 1006 3 5 0.01 0.25
10:52 am 10:52 Cloudy with Light Rain 35 1.7 32 0 89 89 N 29 46 29.70 1006 10 16 0.02 0.51
11:52 am 11:52 Cloudy 34 1.1 31 -0.6 89 89 N 26 43 29.72 1006 10 16 0.00 0.00
12:52 pm 12:52 Cloudy with Mist and Fog 33 0.6 31 -0.6 92 92 N 28 44 29.75 1007 3 5 0.00 0.00
1:52 pm 13:52 Cloudy with Mist and Fog 32 0 29 -1.7 88 88 NNW 32 52 29.77 1008 3 5 0.00 0.00
2:52 pm 14:52 Cloudy 32 0 28 -2.2 85 85 N 30 48 29.79 1009 3 5 0.00 0.00
3:33 pm 15:33 Cloudy 32 0 28 -2.2 85 85 NNW 29 46 29.86 1011 10 16 0.00 0.00
3:52 pm 15:52 Cloudy 31 -0.6 27 -2.8 85 85 N 33 54 29.84 1010 10 16 0.00 0.00
4:52 pm 16:52 Cloudy with Light Wintry Mix 31 -0.6 26 -3.3 82 82 N 35 56 29.86 1011 10 16 0.00 0.00
5:37 pm 17:37 Windy with Snow Likely 31 -0.6 26 -3.3 82 82 NNW 32 52 29.92 1013 3 5 0.00 0.00
5:52 pm 17:52 Windy with Snow Likely 31 -0.6 26 -3.3 82 82 N 37 59 29.89 1012 5 8 0.00 0.00
6:52 pm 18:52 Windy with Snow Likely 31 -0.6 26 -3.3 82 82 N 29 46 29.92 1013 9 14 0.00 0.00
7:52 pm 19:52 Mostly Cloudy 31 -0.6 25 -3.9 79 79 N 25 41 29.96 1015 10 16 0.00 0.00
8:52 pm 20:52 Mostly Cloudy 30 -1.1 26 -3.3 85 85 NNW 22 35 30.00 1016 10 16 0.00 0.00
9:14 pm 21:14 Partly Cloudy 30 -1.1 26 -3.3 85 85 NNW 15 24 30.05 1018 10 16 0.00 0.00
9:52 pm 21:52 Mostly Clear 30 -1.1 26 -3.3 85 85 NNW 14 22 30.02 1017 10 16 0.00 0.00
10:52 pm 22:52 Mostly Cloudy 32 0 24 -4.4 73 73 NNW 24 39 30.02 1017 10 16 0.00 0.00
11:52 pm 23:52 Mostly Clear 30 -1.1 22 -5.6 72 72 NNW 23 37 30.04 1017 10 16 0.00 0.00

Powered by AerisWeather